Regional Weather Roundup
Issued by NWS Grand Forks, ND

Home | Current Version | Previous Version | Graphics & Text | Print | Product List | Glossary On
Versions: 1 2 3 4 5 6 7 8 9 10 11 12 13 14 15 16 17 18 19 20 21 22 23 24 25 26 27 28 29 30 31 32 33 34 35 36 37 38 39 40 41 42 43 44 45 46 47 48 49 50
468
ASUS43 KFGF 070431
RWRFGF
PRAIRIE TO PINES  WEATHER ROUNDUP
NATIONAL WEATHER SERVICE EASTERN NORTH DAKOTA/GRAND FORKS ND
1000 PM CST SAT FEB 06 2016

 **SATELLITE DATA USED TO AUGMENT SKY COVER AT AUTOMATED STATIONS**
 *****  WEATHER ACROSS EASTERN NORTH DAKOTA  *****

CITY           SKY/WX    TMP DP  RH WIND       PRES   REMARKS
GRAND FORKS    CLEAR     38  31  76 SW12      29.49F
GRAND FRKS AFB PTCLDY    38  30  72 SW15      29.48F
GRAND FRKS NWS   N/A     37 N/A N/A W13         N/A
DEVILS LAKE    CLOUDY    36  33  89 W28G33    29.50F
FARGO          CLOUDY    38  33  82 SW17      29.58F
WAHPETON ARPT  PTCLDY    36  32  87 SW10      29.63F
$$

 ***** WEATHER ACROSS CENTRAL AND WESTERN NORTH DAKOTA  *****

CITY           SKY/WX    TMP DP  RH WIND       PRES   REMARKS
BISMARCK       CLOUDY    45  30  55 W17G26    29.74R
MINOT          LGT RAIN  40  26  57 W30G43    29.62R
JAMESTOWN      CLOUDY    38  33  82 W24G32    29.60S
MINOT AFB      CLOUDY    38  30  74 W30G39    29.60R
GARRISON         N/A     38  27  64 NW28G43   29.69R
WILLISTON      CLEAR     37  23  56 W25G35    29.80S
DICKINSON      CLEAR     35  22  58 W28G37    29.81R WCI  22
HETTINGER      CLEAR     36  22  56 W29G36    29.89R
$$

 *****  OTHER AIRPORT OBSERVATIONS IN OUR AREA  *****

CITY           SKY/WX    TMP DP  RH WIND       PRES   REMARKS
WALHALLA       FAIR      39  36  87 W13G22    29.41F
GRAFTON AIRPOR MOCLDY    37  34  87 W13       29.47F
VALLEY CITY AR CLOUDY    39  32  75 W28G38    29.60S
CANDO          MOCLDY    36  32  87 W25G33    29.50S
CAVALIER APRT  FAIR      37  32  81 W17       29.42F
GWINNER          N/A     36  32  87 SW16      29.63F
SHEYENNE NWR     N/A     34  32  92 SW8       29.95S
ROLLA          MIX PCPN  36  32  87 NW28G40   29.47R
 ***** THE ABOVE OBSERVATIONS ARE NON NWS ARE NOT QUALITY
       CONTROLLED AND MAY MIS-REPORT RAIN FOR SNOW...
$$

  *****  WEATHER ACROSS NORTHERN MINNESOTA  *****

CITY           SKY/WX    TMP DP  RH WIND       PRES   REMARKS
FLAG ISLAND    CLOUDY    32  28  86 SE14      29.42F WCI  22
WARROAD        CLOUDY    36  32  87 SW9       29.43F
ROSEAU         CLOUDY    37  32  81 SW13      29.42F
HALLOCK        PTCLDY    36  30  80 SW10      29.41F
THF RVR FALLS  CLOUDY    36  30  80 S12       29.49F
BAUDETTE       CLOUDY    33  26  75 S9        29.46F
WASKISH        MOCLDY    36  34  93 S7        29.49F
CROOKSTON      CLEAR     36  32  87 SW10      29.50F
STEPHEN NDAWN    N/A     37  32  81 SW8         N/A
GREENBUSH NDAW   N/A     37  32  81 SW12        N/A
$$
  *****  WEATHER ACROSS CENTRAL AND WEST MINNESOTA  *****

CITY           SKY/WX    TMP DP  RH WIND       PRES   REMARKS
FOSSTON        PTCLDY    32  30  93 S15       29.53F WCI  22
BEMIDJI        DRIZZLE   36  32  85 SW7       29.55S
PARK RAPIDS    CLOUDY    36  31  82 SW9       29.58F
ELBOW LAKE     CLOUDY    34  32  93 SW10      29.68S
WADENA         PTCLDY    34  32  93 SW10      29.61F
DETROIT LAKES  CLEAR     36  34  93 SW13      29.59F
MOORHEAD       CLEAR     36  32  87 SW12      29.58F
FERGUS FALLS   CLOUDY    34  34 100 SW12      29.67F
MORRIS MN      CLOUDY    36  30  80 SW14      29.68R
STAPLES        PTCLDY    36  34  93 SW9       29.62F
$$
  *****  WEATHER ELSEWHERE ACROSS MINNESOTA  *****

CITY           SKY/WX    TMP DP  RH WIND       PRES   REMARKS
DULUTH         FLURRIES  31  27  85 SW13      29.64F WCI  21
INTRNTL FALLS  LGT SNOW  32  29  88 SE9       29.51F FOG     WCI  24
ELY            LGT SNOW  30  28  93 S9        29.61F WCI  22
CLOQUET        LGT SNOW  32  28  86 S13       29.63F WCI  22
WHEATON        DRIZZLE   37  34  87 W7        29.71R
BRAINERD       CLOUDY    35  31  85 S8        29.63F
HIBBING        LGT SNOW  30  28  92 S5        29.59F FOG
ALEXANDRIA     CLOUDY    34  30  85 SW15      29.66F WCI  24
SAINT CLOUD    CLOUDY    33  29  85 S13       29.69F WCI  24
MINNEAPOLIS    CLOUDY    35  28  75 SW10      29.80F
$$

  *****  WEATHER ACROSS SOUTH DAKOTA  *****

CITY           SKY/WX    TMP DP  RH WIND       PRES   REMARKS
SIOUX FALLS    MOCLDY    33  26  75 W8        29.83F
BROOKINGS      CLOUDY    36  30  79 SW10      29.78R
WATERTOWN      CLEAR     38  29  70 SW16      29.73F
HURON          CLOUDY    39  29  67 W18       29.81R
SISSETON         N/A     40  31  70 W17G24    29.68F
ABERDEEN       CLEAR     42  25  50 W15       29.73S
MITCHELL       CLOUDY    43  30  60 W17       29.84S
PIERRE         PTCLDY    41  26  55 W22       29.86S
MOBRIDGE       CLEAR     42  26  53 NW21G28   29.77R
RAPID CITY     MOCLDY    40  19  43 NW25G35   30.00R
$$

  *****  SOME WEATHER IN NEARBY STATES *****

CITY           SKY/WX    TMP DP  RH WIND       PRES   REMARKS
GLASGOW MT     CLOUDY    33  30  88 W17       29.96F WCI  22
GREAT FALLS MT CLEAR     27  16  63 W13       30.18R WCI  16
CHEYENNE WY    MOCLDY    39  15  37 W21G29    30.09S
SCOTTSBLUFF NE CLOUDY    38  25  59 NW23      30.09R
OMAHA NE       CLOUDY    38  26  62 S10       29.95F
DES MOINES IA  CLOUDY    39  28  64 SW13      29.97F
DAVENPORT IA   CLOUDY    34  29  82 S9        30.05F
CHICAGO IL     PTCLDY    33  28  81 S8        30.07F
EAU CLAIRE WI  CLOUDY    31  24  75 S15       29.85F WCI  20
LA CROSSE WI   CLOUDY    31  25  78 S10       29.92F WCI  22
$$

  *****  SOME NATIONAL WEATHER *****

CITY           SKY/WX    TMP DP  RH WIND       PRES   REMARKS
LA GUARDIA NY  PTCLDY    38  23  55 SW8       30.28F
RALEIGH NC     CLOUDY    38  22  52 NE3       30.25F
ATLANTA GA     PTCLDY    40  20  44 NW7       30.21S
NEW ORLEANS LA PTCLDY    45  29  53 W6        30.30S
OKLAHOMA CITY  CLEAR     33  26  75 S8        30.25F
ALBUQUERQUE NM CLEAR     40  13  33 N9        30.37R
SALT LAKE CITY PTCLDY    30  24  78 S3        30.46S
LOS ANGELES CA CLEAR     66  28  24 VRB3      30.15S
BOISE ID       PTCLDY    34  30  85 NW6       30.45R
SEATTLE WA     PTCLDY    43  37  79 CALM      30.45F
$$

*** WEATHER ACROSS MANITOBA...SASKATCHEWAN AND ONTARIO ***
                ***ONTARIO***

CITY           SKY/WX    TMP DP  RH WIND       PRES   REMARKS
GERALDTON      MOCLDY    -4  -9  77 E12       29.93F WCI -22
THUNDER BAY    LGT SNOW  23  21  93 NE15      29.77F WCI  10
SIOUX LOOKOUT  LGT SNOW  14  10  85 SE10      29.61F WCI   1
TORONTO        MOCLDY    30  19  64 SW6       30.11F WCI  24
BIG TROUT LK   CLEAR    -18 -26  69 SE9       29.97F WCI -38
PICKLE LAKE    NOT AVBL
DRYDEN         LGT SNOW  23  21  93 E12G22    29.54F WCI  12
KENORA         LGT SNOW  27  25  93 SE10      29.45F DRFTSNOWWCI  17
$$
                *** MANITOBA***

CITY           SKY/WX    TMP DP  RH WIND       PRES   REMARKS
BRANDON        LGT RAIN  36  32  87 NW32G39   29.43R
DAUPHIN        LGT SNOW  27  25  93 W10       29.43R WCI  17
ISLAND LAKE    FLURRIES   0  -6  78 E8G20     29.71F WCI -15
PILOT MOUND      N/A     36  32  87 W15G22      N/A
THE PAS        LGT SNOW  12   9  85 E3        29.51R
THOMPSON       CLOUDY    -6 -11  77 E9        29.71S WCI -22
WINNIPEG       MOCLDY    27  25  93 S9        29.37F WCI  17
LYNN LAKE      LGT SNOW  -6  -9  84 E9        29.64R WCI -22
CHURCHILL      MOCLDY   -27 -33  75 SE8       30.11R WCI -48
$$
                ***SASKATCHEWAN***

CITY           SKY/WX    TMP DP  RH WIND       PRES   REMARKS
ESTEVAN        NOT AVBL
KINDERSLEY     CLOUDY    32  23  69 NW36G51   29.83R WCI  16
LLOYDMINSTER   LGT SNOW  30  25  80 NW38G46   29.79R WCI  14
PRINCE ALBERT  FLURRIES  37  27  65 NW26G33   29.50R
REGINA         MOCLDY    36  23  60 W29G40    29.68R
YORKTON        CLOUDY    36  28  75 NW23G29   29.49R
N. BATTLEFORD  CLOUDY    32  25  74 NW37G45   29.71R WCI  16
LA RONGE       LGT SNOW  16  12  86 NW12      29.59R WCI   3
SASKATOON      CLOUDY    34  28  80 NW33G41   29.64F WCI  19
SWIFT CURRENT  CLEAR     34  19  55 NW35G44   29.80F WCI  19
$$
NOTE: THESE ARE AUTOMATED STATIONS WITH LIMITED QUALITY CONTROL
      "FAIR" INDICATES FEW OR NO CLOUDS BELOW 12,000 FEET WITH NO
      SIGNIFICANT WEATHER AND/OR OBSTRUCTIONS TO VISIBILITY.
      SKY/WX - SKY CONDITION AND SIGNIFICANT WEATHER.
      TMP - AIR TEMPERATURE.    DP   - DEWPOINT TEMPERATURE.
      RH  - RELATIVE HUMIDITY.  PRES - PRESSURE.
      HX  - HEAT INDEX.         WCI  - WIND CHILL INDEX.
$




USA.gov is the U.S. government's official web portal to all federal, state and local government web resources and services.